星链-32366 (STARLINK-32366)

导读

STARLINK-32366是美国太空探索技术公司(SpaceX)于2024年10月15日发射的星链(Starlink)低轨互联网卫星,隶属于美国“星链”星座组网项目。星链计划旨在构建全球卫星互联网通信系统,该卫星入轨后将为全球偏远地区、海洋、空中等场景提供高速宽带网络服务,推动全球互联网覆盖进一步完善。

基本信息
目录编号:
61551
目录名称:
STARLINK-32366
国际标识:
2024-184V
轨道中心:
EARTH
卫星名称:
星链-32366
卫星全名:
星链-32366 (STARLINK-32366)
卫星状态:
在轨 (已飞行690 天)
发射日期:
2024-10-15 UTC
国别 :
美国 (US)
星等 :
--
轨道信息
数据来源 国际轨道数据
星历时间: 2026-09-05T08:05:05+0800
11小时前
查看轨道信息
半长轴: 6840.872km
偏心率: 0.0001201
轨道倾角: 53.160°
近地点辐角 84.680°
升交点赤经 258.010°
平近点角 275.433°
近地点: 461.913km
远地点: 463.557km
周期: 93.848分钟
每日圈数: 15.343894
详细信息
固有亮度:
5
最大亮度:
2.5
卫星平台:
Starlink V1.0
覆盖范围:
全球
运营商:
太空探索技术公司
运营商所在国:
美国
制造商(研发单位):
太空探索技术公司
制造商所在国:
美国
使用方式:
暂无
卫星简介
Starlink 计划是 SpaceX 推出的全球卫星互联网项目,通过发射低轨道卫星,为全球尤其是偏远地区提供高速、低延迟的互联网服务。自 2019 年起,Starlink 已部署数千颗卫星,旨在缩小全球数字鸿沟,推动互联网普及。该项目还为军事、航空等行业提供通信支持,带来广泛经济效益。
2D轨道图
3D轨道图
轨道高度分析图
轨道倾角分析图
轨道综合分析图
查看轨道综合分析图
交会数据列表
事件ID 空间交会对象 最接近时刻(TCA) 交会距离 交会风险概率(CRP) 交会风险指数(CRI) 操作
CDM_260907-001006-155106-872521
2026-09-07T
00:10:49+0000
0.441 km
远距离
9.193557E-5 中风险 0.74
CDM_260907-053906-155106-872521
2026-09-07T
05:39:06+0000
0.606 km
远距离
3.776405E-5 中风险 0.67
CDM_260907-014406-155106-872521
2026-09-07T
01:44:37+0000
1.362 km
极远距离
2.593792E-6 低风险 0.43
CDM_260831-084906-155106-166121
2026-08-31T
08:49:02+0000
2.251 km
极远距离
1.47369E-6 低风险 0.38
CDM_260907-040506-155106-872521
2026-09-07T
04:05:19+0000
1.850 km
极远距离
1.091749E-6 低风险 0.36
CDM_260907-071206-155106-872521
2026-09-07T
07:12:54+0000
1.948 km
极远距离
9.665958E-7 极低风险 0.35
CDM_260906-223706-155106-872521
2026-09-06T
22:37:02+0000
2.078 km
极远距离
8.377659E-7 极低风险 0.33